Regional Weather Roundup
Issued by NWS

Home | Current Version | Previous Version | Text Only | Print | Product List | Glossary Off
Versions: 1 2 3 4 5 6 7 8 9 10 11 12 13 14 15 16 17 18 19 20 21 22 23 24 25 26 27

000
ASUS44 KJAN 200910
RWRMS

MISSISSIPPI HOURLY WEATHER ROUNDUP
NATIONAL WEATHER SERVICE JACKSON MS
400 AM CDT SAT APR 20 2024

NOTE: "FAIR: INDICATES FEW OR NO CLOUDS BELOW 12,000 FEET WITH NO
SIGNIFICANT WEATHER AND/OR OBSTRUCTIONS TO VISIBILITY.

MSZ001>002-007>008-010>013-018>021-025>028-034>036-201000-
NORTHWEST MISSISSIPPI

CITY           SKY/WX    TMP DP  RH WIND       PRES   REMARKS
CLARKSDALE       N/A     59 N/A N/A N12       30.14R
GREENWOOD      CLOUDY    62  58  86 N7        30.09R
GREENVILLE     CLOUDY    62  55  77 NE12      30.10S
OLIVE BRANCH   CLOUDY    57  37  47 NE10G16   30.16R
OXFORD         CLOUDY    57  52  82 N10       30.15R
TUNICA         CLOUDY    58  47  66 N14       30.16R
$$

MSZ003>006-009-014>017-022>024-029>033-037>039-201000-
NORTHEAST MISSISSIPPI

CITY           SKY/WX    TMP DP  RH WIND       PRES   REMARKS
ABERDEEN       CLOUDY    61  61 100 NW9       30.10R
COLUMBUS AFB   CLOUDY    63  60  89 NW8       30.04R
CORINTH        CLOUDY    55  45  67 N14       30.14R
GOLDN TRIANGLE CLOUDY    62  60  93 N7        30.08R
IUKA             N/A     57  55  93 VRB5      30.13R
LOUISVILLE     CLOUDY    61  61 100 N7G14     30.10S FOG
STARKVILLE     CLOUDY    61  61 100 N3        30.06S
TUPELO         CLOUDY    60  54  80 N13       30.11R
$$

MSZ040-058-201000-
CENTRAL MISSISSIPPI

CITY           SKY/WX    TMP DP  RH WIND       PRES   REMARKS
JACKSON INTL   CLOUDY    68  66  93 N6        30.05S FOG
JACKSON HAWKNS FOG       65  64  97 N5        30.06S VSB 1
MADISON        FOG       64  64 100 N5        30.06R VSB 3/4
MERIDIAN KEY   CLOUDY    68  65  90 N9        30.05R
MERIDIAN NAS   FOG       67  65  93 NW3       30.06S VSB 3/4
VICKSBURG VKS  CLOUDY    63  63 100 N9        30.07R
$$

MSZ059>079-201000-
SOUTH MISSISSIPPI

CITY           SKY/WX    TMP DP  RH WIND       PRES   REMARKS
BROOKHAVEN     CLOUDY   N/A N/A N/A CALM      30.07S
HATTIESBURG    CLOUDY    72  69  90 CALM      30.05R
LAUREL         CLOUDY    72 N/A N/A CALM      30.04S
MCCOMB         CLOUDY    71  69  93 VRB3      30.05R
NATCHEZ        CLOUDY    64  63  96 N6        30.07S FOG
PINE BELT      LGT RAIN  71  71 100 CALM      30.06R
$$

MSZ080>082-201000-
COASTAL MISSISSIPPI

CITY           SKY/WX    TMP DP  RH WIND       PRES   REMARKS
BILOXI         CLOUDY    75  72  88 CALM      30.01R
GULFPORT       MOCLDY    73  70  90 CALM      30.03R
PASCAGOULA     MOCLDY    72  69  90 CALM      30.03R
$$

LAZ007>009-015>016-023>026-201000-
NORTHEAST LOUISIANA

CITY           SKY/WX    TMP DP  RH WIND       PRES   REMARKS
BASTROP        CLOUDY    58  55  89 CALM      30.11R
TALLULAH/VBURG CLOUDY    63  60  90 N7        30.08S
VIDALIA        CLOUDY    65  62  92 N7        30.09F
$$



USA.gov is the U.S. government's official web portal to all federal, state and local government web resources and services.